User: anonymous   Login
Location: *
(43.6428°N, 11.5461°E)
Time: 09:10:28
(UTC+00:00)
Language:

Cosmos 1076 Rocket - Orbit

View from above orbital plane
View from above orbital plane
View from above satellite
View from above satellite

Ground track
Ground track

The orbit data is extracted from the following two-line orbital elements,

1 11267U 79011B   19342.75023533  .00000066  00000-0  42707-5 0  9999
2 11267  82.5255  95.4090 0018422 100.6173 259.7121 14.88952851210076
Epoch (UTC): 08 December 2019 18:00:20
Eccentricity: 0.0018422
inclination: 82.5255°
perigee height: 588 km
apogee height: 614 km
right ascension of ascending node: 95.4090°
argument of perigee: 100.6173°
revolutions per day: 14.88952851
mean anomaly at epoch: 259.7121°
orbit number at epoch: 21007

The dashed part of the orbit path shows where the satellite is in the earth's shadow,  

DLR